{"data":{"norad_id":37389,"epoch":"2026-09-20T05:06:17.958240Z","epoch_age_seconds":39177,"freshness":"FRESH","line1":"1 37389U 11015C   26263.21270785 -.00000009  00000+0  13790-4 0  9992","line2":"2 37389  98.3640 235.7626 0015284  65.4078 294.8693 14.25228938801210","mean_motion":14.25228938,"eccentricity":0.0015284,"inclination_deg":98.364,"raan_deg":235.7626,"arg_perigee_deg":65.4078,"mean_anomaly_deg":294.8693,"bstar":1.379e-5,"rev_number":80121,"period_min":101.0363992483,"perigee_km":796.74016104586,"apogee_km":818.70589798408,"semimajor_km":7185.860029515,"source":"CELESTRAK","updated_at":"2026-09-20T09:00:47.144415Z"}}